| time (UTC) | temp F | wind direction | speed MPH | gust MPH | rain 1hr in | rain 24hr in | rain mn in | humidity % | barometer mb |
| 20260509013802 | 57 | 252 | 0.0 | 0.0 | 0.08 | 0.26 | 0.20 | 93 | 1014.8 |
| 20260509013302 | 57 | 180 | 0.0 | 0.0 | 0.08 | 0.25 | 0.19 | 93 | 1014.9 |
| 20260509012802 | 57 | 180 | 0.0 | 0.0 | 0.08 | 0.25 | 0.19 | 93 | 1014.9 |
| 20260509012302 | 57 | 180 | 0.0 | 0.0 | 0.07 | 0.24 | 0.18 | 93 | 1014.9 |
| 20260509011802 | 57 | 180 | 0.0 | 0.0 | 0.07 | 0.23 | 0.17 | 93 | 1014.9 |
| 20260509011302 | 57 | 180 | 0.0 | 0.0 | 0.06 | 0.22 | 0.16 | 93 | 1014.9 |
| 20260509010802 | 57 | 180 | 1.0 | 2.0 | 0.06 | 0.22 | 0.16 | 92 | 1015.0 |
| 20260509010302 | 57 | 180 | 1.0 | 2.0 | 0.07 | 0.22 | 0.16 | 93 | 1015.0 |
| 20260509005802 | 57 | 180 | 1.0 | 2.0 | 0.06 | 0.20 | 0.14 | 92 | 1014.9 |
| 20260509005305 | 57 | 180 | 1.0 | 2.0 | 0.06 | 0.20 | 0.14 | 92 | 1015.0 |
| 20260509004802 | 57 | 180 | 2.0 | 3.0 | 0.05 | 0.19 | 0.13 | 92 | 1014.9 |
| 20260509004302 | 57 | 180 | 2.0 | 3.0 | 0.04 | 0.18 | 0.12 | 93 | 1014.9 |
| 20260509003802 | 57 | 178 | 2.0 | 2.0 | 0.04 | 0.18 | 0.12 | 93 | 1015.0 |
| 20260509003302 | 57 | 178 | 2.0 | 3.0 | 0.04 | 0.17 | 0.11 | 92 | 1015.1 |
| 20260509002802 | 57 | 177 | 1.0 | 3.0 | 0.04 | 0.17 | 0.11 | 92 | 1015.1 |
| 20260509002305 | 57 | 177 | 1.0 | 2.0 | 0.04 | 0.17 | 0.11 | 92 | 1015.1 |
| 20260509001802 | 57 | 177 | 1.0 | 3.0 | 0.04 | 0.16 | 0.10 | 92 | 1015.2 |
| 20260509001302 | 57 | 180 | 1.0 | 2.0 | 0.04 | 0.16 | 0.10 | 92 | 1015.1 |
| 20260509000802 | 57 | 180 | 2.0 | 4.0 | 0.04 | 0.16 | 0.10 | 92 | 1015.2 |
| 20260509000303 | 58 | 178 | 2.0 | 4.0 | 0.04 | 0.15 | 0.09 | 92 | 1015.2 |
| 20260508235802 | 57 | 153 | 2.0 | 3.0 | 0.05 | 0.15 | 0.09 | 92 | 1015.2 |
| 20260508235306 | 58 | 152 | 2.0 | 4.0 | 0.04 | 0.14 | 0.08 | 92 | 1015.2 |
| 20260508234802 | 58 | 178 | 2.0 | 3.0 | 0.05 | 0.14 | 0.08 | 92 | 1015.4 |
| 20260508234302 | 57 | 180 | 1.0 | 3.0 | 0.05 | 0.14 | 0.08 | 92 | 1015.4 |
| 20260508233802 | 57 | 178 | 0.0 | 2.0 | 0.06 | 0.14 | 0.08 | 92 | 1015.4 |
| 20260508233302 | 57 | 178 | 0.0 | 0.0 | 0.05 | 0.13 | 0.07 | 92 | 1015.5 |
| 20260508232802 | 57 | 178 | 1.0 | 2.0 | 0.05 | 0.13 | 0.07 | 92 | 1015.5 |
| 20260508232306 | 57 | 178 | 1.0 | 2.0 | 0.05 | 0.13 | 0.07 | 92 | 1015.6 |
| 20260508231802 | 57 | 178 | 1.0 | 2.0 | 0.05 | 0.12 | 0.06 | 91 | 1015.6 |
| 20260508231302 | 57 | 186 | 2.0 | 3.0 | 0.05 | 0.12 | 0.06 | 91 | 1015.6 |
| 20260508230802 | 57 | 185 | 1.0 | 3.0 | 0.06 | 0.12 | 0.06 | 91 | 1015.6 |
| 20260508230302 | 58 | 181 | 1.0 | 2.0 | 0.04 | 0.10 | 0.04 | 91 | 1015.7 |
| 20260508225802 | 58 | 181 | 1.0 | 2.0 | 0.04 | 0.10 | 0.04 | 91 | 1015.7 |
| 20260508225306 | 58 | 181 | 2.0 | 3.0 | 0.04 | 0.10 | 0.04 | 91 | 1015.7 |
| 20260508224802 | 58 | 171 | 2.0 | 4.0 | 0.04 | 0.09 | 0.03 | 91 | 1015.8 |
| 20260508224302 | 58 | 167 | 2.0 | 4.0 | 0.04 | 0.09 | 0.03 | 91 | 1015.8 |
| 20260508223802 | 58 | 167 | 3.0 | 4.0 | 0.04 | 0.08 | 0.02 | 91 | 1015.7 |
| 20260508223302 | 58 | 161 | 4.0 | 6.0 | 0.04 | 0.08 | 0.02 | 91 | 1015.7 |
| 20260508222802 | 58 | 172 | 5.0 | 6.0 | 0.04 | 0.08 | 0.02 | 91 | 1015.7 |
| 20260508222306 | 58 | 161 | 5.0 | 8.0 | 0.05 | 0.08 | 0.02 | 90 | 1015.6 |
| 20260508221802 | 58 | 154 | 5.0 | 8.0 | 0.04 | 0.07 | 0.01 | 90 | 1015.6 |
| 20260508221302 | 58 | 146 | 5.0 | 9.0 | 0.04 | 0.07 | 0.01 | 90 | 1015.6 |
| 20260508220802 | 58 | 168 | 4.0 | 8.0 | 0.04 | 0.06 | 0.00 | 90 | 1015.6 |
| 20260508220302 | 58 | 155 | 3.0 | 6.0 | 0.04 | 0.06 | 0.00 | 90 | 1015.4 |
| 20260508215802 | 58 | 161 | 3.0 | 4.0 | 0.04 | 0.06 | 0.06 | 90 | 1015.4 |
| 20260508215306 | 58 | 150 | 4.0 | 6.0 | 0.04 | 0.06 | 0.06 | 90 | 1015.4 |
| 20260508214802 | 58 | 166 | 4.0 | 6.0 | 0.05 | 0.06 | 0.06 | 90 | 1015.4 |
| 20260508214302 | 58 | 152 | 3.0 | 5.0 | 0.04 | 0.05 | 0.05 | 90 | 1015.3 |
| 20260508213802 | 58 | 140 | 4.0 | 6.0 | 0.04 | 0.04 | 0.04 | 89 | 1015.3 |
| 20260508213302 | 58 | 136 | 4.0 | 8.0 | 0.04 | 0.04 | 0.04 | 89 | 1015.3 |
| 20260508212802 | 58 | 139 | 4.0 | 7.0 | 0.04 | 0.04 | 0.04 | 89 | 1015.4 |
| 20260508212306 | 58 | 146 | 5.0 | 6.0 | 0.03 | 0.03 | 0.03 | 89 | 1015.4 |
| 20260508211802 | 58 | 155 | 5.0 | 7.0 | 0.03 | 0.03 | 0.03 | 88 | 1015.3 |
| 20260508211302 | 58 | 141 | 5.0 | 8.0 | 0.03 | 0.03 | 0.03 | 88 | 1015.4 |
| 20260508210802 | 59 | 159 | 4.0 | 8.0 | 0.02 | 0.02 | 0.02 | 88 | 1015.4 |
| 20260508210302 | 59 | 143 | 4.0 | 8.0 | 0.02 | 0.02 | 0.02 | 88 | 1015.4 |
| 20260508205802 | 59 | 127 | 4.0 | 8.0 | 0.02 | 0.02 | 0.02 | 88 | 1015.4 |
| 20260508205305 | 59 | 138 | 4.0 | 7.0 | 0.02 | 0.02 | 0.02 | 87 | 1015.5 |
| 20260508204802 | 59 | 140 | 5.0 | 8.0 | 0.01 | 0.01 | 0.01 | 87 | 1015.5 |
| 20260508204302 | 59 | 142 | 5.0 | 7.0 | 0.01 | 0.01 | 0.01 | 87 | 1015.5 |
| 20260508203802 | 59 | 149 | 6.0 | 9.0 | 0.00 | 0.00 | 0.00 | 87 | 1015.3 |
| 20260508203302 | 59 | 157 | 8.0 | 10.0 | 0.00 | 0.00 | 0.00 | 87 | 1015.4 |
| 20260508202802 | 59 | 143 | 8.0 | 12.0 | 0.00 | 0.00 | 0.00 | 87 | 1015.5 |
| 20260508202306 | 59 | 165 | 7.0 | 10.0 | 0.00 | 0.00 | 0.00 | 87 | 1015.3 |
| 20260508201802 | 59 | 159 | 8.0 | 11.0 | 0.00 | 0.00 | 0.00 | 87 | 1015.4 |
| 20260508201302 | 59 | 143 | 8.0 | 13.0 | 0.00 | 0.00 | 0.00 | 87 | 1015.3 |
| 20260508200802 | 59 | 157 | 9.0 | 15.0 | 0.00 | 0.00 | 0.00 | 87 | 1015.2 |
| 20260508200302 | 59 | 155 | 9.0 | 15.0 | 0.00 | 0.00 | 0.00 | 87 | 1015.2 |
| 20260508195802 | 60 | 173 | 8.0 | 13.0 | 0.00 | 0.00 | 0.00 | 88 | 1015.2 |
| 20260508195306 | 60 | 152 | 6.0 | 10.0 | 0.00 | 0.00 | 0.00 | 89 | 1015.2 |
| 20260508194802 | 60 | 138 | 6.0 | 9.0 | 0.00 | 0.00 | 0.00 | 89 | 1015.1 |
| 20260508194303 | 60 | 138 | 6.0 | 9.0 | 0.00 | 0.00 | 0.00 | 89 | 1015.1 |
| 20260508193802 | 60 | 142 | 6.0 | 9.0 | 0.00 | 0.00 | 0.00 | 89 | 1014.9 |
| 20260508193302 | 60 | 140 | 5.0 | 9.0 | 0.00 | 0.00 | 0.00 | 89 | 1014.8 |
| 20260508192802 | 60 | 129 | 4.0 | 8.0 | 0.00 | 0.00 | 0.00 | 89 | 1014.7 |
| 20260508192305 | 60 | 123 | 4.0 | 7.0 | 0.00 | 0.00 | 0.00 | 89 | 1014.7 |
| 20260508191802 | 61 | 131 | 4.0 | 5.0 | 0.00 | 0.00 | 0.00 | 89 | 1014.6 |
| 20260508191302 | 61 | 135 | 3.0 | 5.0 | 0.00 | 0.00 | 0.00 | 89 | 1014.6 |
| 20260508190802 | 61 | 131 | 4.0 | 5.0 | 0.00 | 0.00 | 0.00 | 89 | 1014.5 |
| 20260508190302 | 61 | 123 | 4.0 | 7.0 | 0.00 | 0.00 | 0.00 | 88 | 1014.5 |
| 20260508185803 | 61 | 140 | 4.0 | 7.0 | 0.00 | 0.00 | 0.00 | 88 | 1014.4 |
| 20260508185306 | 61 | 127 | 3.0 | 5.0 | 0.00 | 0.00 | 0.00 | 88 | 1014.4 |
| 20260508184803 | 61 | 123 | 4.0 | 5.0 | 0.00 | 0.00 | 0.00 | 87 | 1014.3 |
| 20260508184303 | 61 | 142 | 4.0 | 7.0 | 0.00 | 0.00 | 0.00 | 87 | 1014.3 |
| 20260508183803 | 61 | 124 | 4.0 | 7.0 | 0.00 | 0.00 | 0.00 | 86 | 1014.2 |
| 20260508183303 | 61 | 109 | 3.0 | 6.0 | 0.00 | 0.00 | 0.00 | 86 | 1014.1 |
| 20260508182803 | 61 | 116 | 2.0 | 4.0 | 0.00 | 0.00 | 0.00 | 85 | 1014.0 |
| 20260508182306 | 62 | 106 | 0.0 | 3.0 | 0.00 | 0.00 | 0.00 | 85 | 1013.9 |
| 20260508181803 | 62 | 71 | 0.0 | 0.0 | 0.00 | 0.00 | 0.00 | 84 | 1013.9 |
| 20260508181303 | 62 | 67 | 0.0 | 0.0 | 0.00 | 0.00 | 0.00 | 84 | 1013.8 |
| 20260508180803 | 62 | 66 | 0.0 | 0.0 | 0.00 | 0.00 | 0.00 | 83 | 1013.8 |
| 20260508180303 | 62 | 66 | 0.0 | 0.0 | 0.00 | 0.00 | 0.00 | 83 | 1013.7 |
| 20260508175803 | 62 | 66 | 0.0 | 0.0 | 0.00 | 0.00 | 0.00 | 83 | 1013.7 |
| 20260508175305 | 62 | 66 | 0.0 | 0.0 | 0.00 | 0.00 | 0.00 | 82 | 1013.6 |
| 20260508174803 | 62 | 66 | 1.0 | 1.0 | 0.00 | 0.00 | 0.00 | 82 | 1013.6 |
| 20260508174303 | 62 | 66 | 1.0 | 3.0 | 0.00 | 0.00 | 0.00 | 82 | 1013.4 |
| 20260508173803 | 62 | 67 | 0.0 | 0.0 | 0.00 | 0.00 | 0.00 | 81 | 1013.5 |
| 20260508173303 | 62 | 67 | 1.0 | 1.0 | 0.00 | 0.00 | 0.00 | 81 | 1013.4 |
| 20260508172803 | 62 | 67 | 1.0 | 2.0 | 0.00 | 0.00 | 0.00 | 81 | 1013.4 |
| 20260508172306 | 62 | 67 | 2.0 | 3.0 | 0.00 | 0.00 | 0.00 | 80 | 1013.3 |
| 20260508171803 | 62 | 67 | 2.0 | 3.0 | 0.00 | 0.00 | 0.00 | 80 | 1013.3 |
| 20260508171303 | 62 | 67 | 1.0 | 4.0 | 0.00 | 0.00 | 0.00 | 80 | 1013.3 |
| 20260508170803 | 62 | 293 | 0.0 | 2.0 | 0.00 | 0.00 | 0.00 | 80 | 1013.2 |
| 20260508170303 | 62 | 293 | 0.0 | 2.0 | 0.00 | 0.00 | 0.00 | 79 | 1013.2 |
| 20260508165803 | 62 | 293 | 1.0 | 1.0 | 0.00 | 0.00 | 0.00 | 79 | 1013.1 |
| 20260508165306 | 63 | 293 | 2.0 | 3.0 | 0.00 | 0.00 | 0.00 | 79 | 1013.1 |
| 20260508164803 | 63 | 296 | 2.0 | 4.0 | 0.00 | 0.00 | 0.00 | 79 | 1013.1 |
| 20260508164303 | 63 | 291 | 4.0 | 6.0 | 0.00 | 0.00 | 0.00 | 78 | 1013.1 |
| 20260508163803 | 63 | 270 | 4.0 | 7.0 | 0.00 | 0.00 | 0.00 | 78 | 1013.2 |
| 20260508163303 | 63 | 272 | 4.0 | 7.0 | 0.00 | 0.00 | 0.00 | 78 | 1013.1 |
| 20260508162803 | 63 | 300 | 4.0 | 7.0 | 0.00 | 0.00 | 0.00 | 77 | 1013.1 |
| 20260508162306 | 63 | 299 | 3.0 | 6.0 | 0.00 | 0.00 | 0.00 | 77 | 1013.0 |
| 20260508161803 | 64 | 296 | 3.0 | 4.0 | 0.00 | 0.00 | 0.00 | 76 | 1013.0 |
| 20260508161303 | 64 | 290 | 2.0 | 4.0 | 0.00 | 0.00 | 0.00 | 76 | 1013.1 |
| 20260508160803 | 64 | 268 | 3.0 | 7.0 | 0.00 | 0.00 | 0.00 | 75 | 1013.0 |
| 20260508160303 | 64 | 304 | 4.0 | 7.0 | 0.00 | 0.00 | 0.00 | 75 | 1012.8 |
| 20260508155803 | 64 | 273 | 4.0 | 6.0 | 0.00 | 0.00 | 0.00 | 75 | 1012.8 |
| 20260508155306 | 64 | 278 | 5.0 | 7.0 | 0.00 | 0.00 | 0.00 | 75 | 1012.8 |
| 20260508154803 | 64 | 295 | 4.0 | 7.0 | 0.00 | 0.00 | 0.00 | 75 | 1012.8 |
| 20260508154303 | 64 | 278 | 5.0 | 8.0 | 0.00 | 0.00 | 0.00 | 75 | 1012.8 |
| 20260508153803 | 64 | 270 | 5.0 | 8.0 | 0.00 | 0.00 | 0.00 | 74 | 1012.7 |
| 20260508153303 | 64 | 270 | 5.0 | 8.0 | 0.00 | 0.00 | 0.00 | 74 | 1012.8 |
| 20260508152803 | 65 | 261 | 6.0 | 10.0 | 0.00 | 0.00 | 0.00 | 73 | 1012.8 |
| 20260508152305 | 65 | 298 | 6.0 | 9.0 | 0.00 | 0.00 | 0.00 | 73 | 1013.0 |
| 20260508151803 | 65 | 291 | 6.0 | 10.0 | 0.00 | 0.00 | 0.00 | 71 | 1013.0 |
| 20260508151303 | 65 | 322 | 5.0 | 9.0 | 0.00 | 0.00 | 0.00 | 70 | 1013.0 |
| 20260508150803 | 66 | 311 | 5.0 | 8.0 | 0.00 | 0.00 | 0.00 | 70 | 1012.8 |
| 20260508150303 | 66 | 296 | 6.0 | 8.0 | 0.00 | 0.00 | 0.00 | 68 | 1012.8 |
| 20260508145803 | 66 | 306 | 6.0 | 8.0 | 0.00 | 0.00 | 0.00 | 68 | 1012.8 |
| 20260508145306 | 66 | 313 | 6.0 | 7.0 | 0.00 | 0.00 | 0.00 | 68 | 1012.8 |
| 20260508144803 | 67 | 300 | 3.0 | 10.0 | 0.00 | 0.00 | 0.00 | 66 | 1012.7 |
| 20260508144303 | 68 | 296 | 2.0 | 5.0 | 0.00 | 0.00 | 0.00 | 65 | 1012.8 |
| 20260508143803 | 68 | 334 | 1.0 | 2.0 | 0.00 | 0.00 | 0.00 | 61 | 1012.8 |
| 20260508143303 | 68 | 98 | 1.0 | 2.0 | 0.00 | 0.00 | 0.00 | 60 | 1012.8 |
| 20260508142803 | 68 | 94 | 1.0 | 2.0 | 0.00 | 0.00 | 0.00 | 60 | 1012.8 |
| 20260508142306 | 68 | 94 | 1.0 | 2.0 | 0.00 | 0.00 | 0.00 | 60 | 1012.7 |
| 20260508141803 | 67 | 5 | 1.0 | 1.0 | 0.00 | 0.00 | 0.00 | 61 | 1012.8 |
| 20260508141303 | 67 | 0 | 2.0 | 4.0 | 0.00 | 0.00 | 0.00 | 60 | 1012.8 |
| 20260508140803 | 67 | 337 | 2.0 | 3.0 | 0.00 | 0.00 | 0.00 | 62 | 1012.9 |
| 20260508140303 | 66 | 337 | 2.0 | 3.0 | 0.00 | 0.00 | 0.00 | 62 | 1012.8 |
| 20260508135803 | 66 | 322 | 2.0 | 3.0 | 0.00 | 0.00 | 0.00 | 65 | 1012.8 |
| 20260508135306 | 66 | 292 | 3.0 | 4.0 | 0.00 | 0.00 | 0.00 | 65 | 1012.9 |
| 20260508134803 | 66 | 284 | 3.0 | 4.0 | 0.00 | 0.00 | 0.00 | 66 | 1012.8 |
| 20260508134303 | 66 | 307 | 3.0 | 4.0 | 0.00 | 0.00 | 0.00 | 66 | 1013.0 |
| 20260508133803 | 66 | 270 | 3.0 | 6.0 | 0.00 | 0.00 | 0.00 | 66 | 1012.9 |
| 20260508133303 | 66 | 283 | 3.0 | 4.0 | 0.00 | 0.00 | 0.00 | 66 | 1013.0 |
| 20260508132803 | 66 | 300 | 3.0 | 4.0 | 0.00 | 0.00 | 0.00 | 68 | 1013.0 |
| 20260508132306 | 65 | 292 | 3.0 | 4.0 | 0.00 | 0.00 | 0.00 | 66 | 1013.1 |
| 20260508131803 | 65 | 303 | 4.0 | 6.0 | 0.00 | 0.00 | 0.00 | 67 | 1013.0 |
| 20260508131303 | 65 | 273 | 5.0 | 7.0 | 0.00 | 0.00 | 0.00 | 67 | 1013.0 |
| 20260508130803 | 65 | 292 | 5.0 | 8.0 | 0.00 | 0.00 | 0.00 | 67 | 1013.0 |
| 20260508130303 | 65 | 286 | 5.0 | 8.0 | 0.00 | 0.00 | 0.00 | 68 | 1013.1 |
| 20260508125803 | 65 | 295 | 6.0 | 9.0 | 0.00 | 0.00 | 0.00 | 68 | 1013.0 |
| 20260508125306 | 65 | 296 | 6.0 | 8.0 | 0.00 | 0.00 | 0.00 | 68 | 1013.0 |
| 20260508124803 | 65 | 288 | 7.0 | 9.0 | 0.00 | 0.00 | 0.00 | 68 | 1013.2 |
| 20260508124303 | 65 | 272 | 7.0 | 9.0 | 0.00 | 0.00 | 0.00 | 68 | 1013.3 |
| 20260508123803 | 65 | 272 | 7.0 | 10.0 | 0.00 | 0.00 | 0.00 | 67 | 1013.2 |
| 20260508123303 | 65 | 289 | 6.0 | 9.0 | 0.00 | 0.00 | 0.00 | 68 | 1013.3 |
| 20260508122803 | 65 | 263 | 6.0 | 8.0 | 0.00 | 0.01 | 0.00 | 69 | 1013.4 |
| 20260508122306 | 65 | 285 | 6.0 | 10.0 | 0.00 | 0.01 | 0.00 | 69 | 1013.4 |
| 20260508121803 | 65 | 278 | 6.0 | 9.0 | 0.00 | 0.01 | 0.00 | 69 | 1013.4 |
| 20260508121303 | 65 | 305 | 7.0 | 10.0 | 0.00 | 0.01 | 0.00 | 68 | 1013.5 |
| 20260508120803 | 65 | 306 | 6.0 | 10.0 | 0.00 | 0.01 | 0.00 | 69 | 1013.4 |
| 20260508120303 | 65 | 310 | 5.0 | 9.0 | 0.00 | 0.01 | 0.00 | 69 | 1013.5 |
| 20260508115803 | 65 | 326 | 5.0 | 8.0 | 0.00 | 0.01 | 0.00 | 70 | 1013.6 |
| 20260508115306 | 65 | 299 | 5.0 | 10.0 | 0.00 | 0.01 | 0.00 | 70 | 1013.6 |
| 20260508114803 | 65 | 304 | 5.0 | 9.0 | 0.00 | 0.01 | 0.00 | 69 | 1013.5 |
| 20260508114303 | 65 | 311 | 6.0 | 10.0 | 0.00 | 0.01 | 0.00 | 68 | 1013.7 |
| 20260508113803 | 65 | 312 | 6.0 | 10.0 | 0.00 | 0.01 | 0.00 | 68 | 1013.7 |
| 20260508113303 | 65 | 321 | 6.0 | 9.0 | 0.00 | 0.01 | 0.00 | 67 | 1013.7 |
| 20260508112803 | 65 | 276 | 8.0 | 13.0 | 0.00 | 0.01 | 0.00 | 67 | 1013.7 |
| 20260508112306 | 65 | 303 | 7.0 | 13.0 | 0.00 | 0.01 | 0.00 | 67 | 1013.7 |
| 20260508111803 | 66 | 298 | 6.0 | 11.0 | 0.00 | 0.01 | 0.00 | 67 | 1013.7 |
| 20260508111303 | 66 | 315 | 7.0 | 10.0 | 0.00 | 0.01 | 0.00 | 67 | 1013.8 |
| 20260508110803 | 66 | 298 | 6.0 | 10.0 | 0.00 | 0.01 | 0.00 | 66 | 1013.9 |
| 20260508110303 | 66 | 304 | 5.0 | 8.0 | 0.00 | 0.01 | 0.00 | 64 | 1014.0 |
| 20260508105803 | 67 | 330 | 5.0 | 8.0 | 0.00 | 0.01 | 0.00 | 64 | 1014.0 |
| 20260508105306 | 67 | 319 | 4.0 | 6.0 | 0.00 | 0.01 | 0.00 | 62 | 1014.0 |
| 20260508104803 | 67 | 311 | 4.0 | 7.0 | 0.00 | 0.01 | 0.00 | 61 | 1014.0 |
| 20260508104303 | 67 | 282 | 6.0 | 8.0 | 0.00 | 0.01 | 0.00 | 61 | 1013.9 |
| 20260508103803 | 67 | 281 | 6.0 | 10.0 | 0.00 | 0.01 | 0.00 | 61 | 1014.0 |
| 20260508103303 | 67 | 286 | 6.0 | 9.0 | 0.00 | 0.01 | 0.00 | 61 | 1014.1 |
| 20260508102803 | 68 | 258 | 6.0 | 10.0 | 0.00 | 0.01 | 0.00 | 59 | 1014.1 |
| 20260508102306 | 68 | 255 | 5.0 | 8.0 | 0.00 | 0.01 | 0.00 | 57 | 1014.1 |
| 20260508101803 | 68 | 250 | 5.0 | 8.0 | 0.00 | 0.01 | 0.00 | 57 | 1014.2 |
| 20260508101304 | 68 | 254 | 5.0 | 8.0 | 0.00 | 0.01 | 0.00 | 54 | 1014.2 |
| 20260508100803 | 69 | 202 | 5.0 | 9.0 | 0.00 | 0.01 | 0.00 | 54 | 1014.2 |
| 20260508100304 | 69 | 169 | 6.0 | 9.0 | 0.00 | 0.01 | 0.00 | 54 | 1014.2 |
| 20260508095803 | 69 | 217 | 8.0 | 12.0 | 0.00 | 0.01 | 0.00 | 54 | 1014.2 |
| 20260508095306 | 69 | 183 | 8.0 | 14.0 | 0.00 | 0.01 | 0.00 | 53 | 1014.3 |
| 20260508094804 | 69 | 184 | 5.0 | 10.0 | 0.00 | 0.01 | 0.00 | 52 | 1014.3 |
| 20260508094304 | 69 | 245 | 2.0 | 10.0 | 0.00 | 0.01 | 0.00 | 54 | 1014.3 |
| 20260508093804 | 68 | 134 | 1.0 | 2.0 | 0.00 | 0.01 | 0.00 | 60 | 1014.5 |
| 20260508093304 | 68 | 238 | 2.0 | 4.0 | 0.00 | 0.01 | 0.00 | 59 | 1014.5 |
| 20260508092804 | 68 | 158 | 2.0 | 4.0 | 0.00 | 0.01 | 0.00 | 61 | 1014.6 |
| 20260508092312 | 68 | 154 | 2.0 | 5.0 | 0.00 | 0.01 | 0.00 | 61 | 1014.6 |
| 20260508091804 | 68 | 59 | 3.0 | 5.0 | 0.00 | 0.01 | 0.00 | 62 | 1014.5 |
| 20260508091304 | 67 | 52 | 2.0 | 5.0 | 0.00 | 0.01 | 0.00 | 62 | 1014.5 |
| 20260508090804 | 67 | 72 | 1.0 | 3.0 | 0.00 | 0.01 | 0.00 | 58 | 1014.6 |
| 20260508090304 | 67 | 58 | 2.0 | 3.0 | 0.00 | 0.01 | 0.00 | 58 | 1014.6 |
| 20260508085804 | 66 | 60 | 3.0 | 4.0 | 0.00 | 0.01 | 0.00 | 57 | 1014.6 |
| 20260508085306 | 66 | 339 | 4.0 | 6.0 | 0.00 | 0.01 | 0.00 | 57 | 1014.5 |
| 20260508084804 | 66 | 355 | 4.0 | 9.0 | 0.00 | 0.01 | 0.00 | 58 | 1014.4 |
| 20260508084304 | 65 | 328 | 4.0 | 6.0 | 0.00 | 0.01 | 0.00 | 59 | 1014.3 |
| 20260508083804 | 65 | 336 | 5.0 | 9.0 | 0.00 | 0.01 | 0.00 | 58 | 1014.3 |
| 20260508083304 | 65 | 5 | 5.0 | 9.0 | 0.00 | 0.01 | 0.00 | 58 | 1014.3 |
| 20260508082804 | 65 | 350 | 4.0 | 10.0 | 0.00 | 0.01 | 0.00 | 58 | 1014.3 |
| 20260508082306 | 65 | 346 | 2.0 | 6.0 | 0.00 | 0.01 | 0.00 | 57 | 1014.5 |
| 20260508081804 | 64 | 306 | 4.0 | 6.0 | 0.00 | 0.01 | 0.00 | 57 | 1014.6 |
| 20260508081304 | 64 | 228 | 5.0 | 7.0 | 0.00 | 0.01 | 0.00 | 61 | 1014.4 |
| 20260508080804 | 64 | 241 | 4.0 | 6.0 | 0.00 | 0.01 | 0.00 | 61 | 1014.2 |
| 20260508080304 | 64 | 238 | 4.0 | 6.0 | 0.00 | 0.01 | 0.00 | 62 | 1014.3 |
| 20260508075804 | 63 | 253 | 5.0 | 9.0 | 0.00 | 0.01 | 0.00 | 62 | 1014.2 |
| 20260508075308 | 63 | 310 | 4.0 | 9.0 | 0.00 | 0.01 | 0.00 | 63 | 1014.1 |
| 20260508074804 | 63 | 324 | 4.0 | 8.0 | 0.00 | 0.01 | 0.00 | 64 | 1014.2 |
| 20260508074304 | 63 | 228 | 4.0 | 7.0 | 0.00 | 0.01 | 0.00 | 63 | 1014.3 |
| 20260508073804 | 63 | 188 | 5.0 | 11.0 | 0.00 | 0.01 | 0.00 | 64 | 1014.4 |
| 20260508073304 | 63 | 344 | 5.0 | 11.0 | 0.00 | 0.01 | 0.00 | 64 | 1014.2 |
| 20260508072804 | 63 | 341 | 4.0 | 8.0 | 0.00 | 0.02 | 0.00 | 63 | 1014.4 |
| 20260508072307 | 63 | 330 | 4.0 | 8.0 | 0.00 | 0.02 | 0.00 | 62 | 1014.4 |
| 20260508071804 | 63 | 348 | 5.0 | 9.0 | 0.00 | 0.02 | 0.00 | 63 | 1014.4 |
| 20260508071304 | 63 | 32 | 5.0 | 9.0 | 0.00 | 0.02 | 0.00 | 63 | 1014.4 |
| 20260508070804 | 63 | 337 | 4.0 | 8.0 | 0.00 | 0.02 | 0.00 | 65 | 1014.5 |
| 20260508070304 | 63 | 336 | 3.0 | 6.0 | 0.00 | 0.02 | 0.00 | 66 | 1014.5 |
| 20260508065804 | 63 | 291 | 3.0 | 5.0 | 0.00 | 0.02 | 0.00 | 66 | 1014.5 |
| 20260508065306 | 63 | 284 | 3.0 | 6.0 | 0.00 | 0.02 | 0.00 | 66 | 1014.5 |
| 20260508064804 | 62 | 298 | 2.0 | 5.0 | 0.00 | 0.02 | 0.00 | 65 | 1014.6 |
| 20260508064304 | 62 | 307 | 2.0 | 5.0 | 0.00 | 0.02 | 0.00 | 65 | 1014.6 |
| 20260508063804 | 62 | 276 | 2.0 | 3.0 | 0.00 | 0.02 | 0.00 | 65 | 1014.7 |
| 20260508063304 | 62 | 294 | 2.0 | 4.0 | 0.00 | 0.02 | 0.00 | 65 | 1014.5 |
| 20260508062804 | 62 | 294 | 2.0 | 4.0 | 0.00 | 0.04 | 0.00 | 65 | 1014.5 |
| 20260508062306 | 62 | 267 | 1.0 | 3.0 | 0.00 | 0.04 | 0.00 | 66 | 1014.6 |
| 20260508061804 | 62 | 262 | 1.0 | 3.0 | 0.00 | 0.04 | 0.00 | 66 | 1014.6 |
| 20260508061304 | 62 | 261 | 1.0 | 2.0 | 0.00 | 0.04 | 0.00 | 66 | 1014.6 |
| 20260508060804 | 62 | 286 | 0.0 | 2.0 | 0.00 | 0.04 | 0.00 | 65 | 1014.6 |
| 20260508060304 | 62 | 266 | 0.0 | 0.0 | 0.00 | 0.04 | 0.00 | 67 | 1014.5 |
| 20260508055804 | 62 | 266 | 1.0 | 1.0 | 0.00 | 0.04 | 0.00 | 68 | 1014.4 |
| 20260508055306 | 61 | 266 | 2.0 | 2.0 | 0.00 | 0.04 | 0.00 | 67 | 1014.5 |
| 20260508054804 | 61 | 266 | 2.0 | 3.0 | 0.00 | 0.04 | 0.00 | 66 | 1014.4 |
| 20260508054304 | 61 | 262 | 3.0 | 3.0 | 0.00 | 0.04 | 0.00 | 67 | 1014.4 |
| 20260508053804 | 61 | 263 | 3.0 | 4.0 | 0.00 | 0.04 | 0.00 | 67 | 1014.6 |
| 20260508053304 | 61 | 263 | 2.0 | 4.0 | 0.00 | 0.04 | 0.00 | 67 | 1014.5 |
| 20260508052804 | 61 | 277 | 2.0 | 2.0 | 0.00 | 0.04 | 0.00 | 67 | 1014.4 |
| 20260508052306 | 61 | 277 | 2.0 | 3.0 | 0.00 | 0.04 | 0.00 | 67 | 1014.5 |
| 20260508051804 | 61 | 291 | 2.0 | 4.0 | 0.00 | 0.04 | 0.00 | 67 | 1014.5 |
| 20260508051304 | 60 | 286 | 2.0 | 3.0 | 0.00 | 0.04 | 0.00 | 67 | 1014.5 |
| 20260508050804 | 60 | 272 | 2.0 | 3.0 | 0.00 | 0.04 | 0.00 | 67 | 1014.6 |
| 20260508050306 | 60 | 271 | 3.0 | 3.0 | 0.00 | 0.04 | 0.00 | 66 | 1014.6 |
| 20260508045804 | 60 | 269 | 3.0 | 6.0 | 0.00 | 0.04 | 0.00 | 66 | 1014.7 |
| 20260508045307 | 60 | 261 | 4.0 | 6.0 | 0.00 | 0.04 | 0.00 | 66 | 1014.6 |
| 20260508044804 | 60 | 289 | 4.0 | 7.0 | 0.00 | 0.04 | 0.00 | 66 | 1014.6 |
| 20260508044304 | 60 | 292 | 3.0 | 6.0 | 0.00 | 0.04 | 0.00 | 67 | 1014.6 |
| 20260508043804 | 60 | 283 | 3.0 | 4.0 | 0.00 | 0.04 | 0.00 | 66 | 1014.8 |
| 20260508043304 | 60 | 284 | 3.0 | 5.0 | 0.00 | 0.04 | 0.00 | 65 | 1014.7 |
| 20260508042804 | 60 | 326 | 3.0 | 4.0 | 0.00 | 0.04 | 0.00 | 65 | 1014.6 |
| 20260508042307 | 60 | 329 | 3.0 | 7.0 | 0.00 | 0.04 | 0.00 | 65 | 1014.6 |
| 20260508041804 | 60 | 282 | 2.0 | 7.0 | 0.00 | 0.04 | 0.00 | 65 | 1014.6 |
| 20260508041304 | 59 | 293 | 1.0 | 4.0 | 0.00 | 0.04 | 0.00 | 65 | 1014.5 |
| 20260508040804 | 59 | 11 | 2.0 | 2.0 | 0.00 | 0.04 | 0.00 | 65 | 1014.5 |
| 20260508040304 | 59 | 11 | 1.0 | 4.0 | 0.00 | 0.04 | 0.00 | 64 | 1014.4 |
| 20260508035804 | 59 | 343 | 1.0 | 3.0 | 0.00 | 0.04 | 0.00 | 63 | 1014.4 |
| 20260508035306 | 59 | 345 | 0.0 | 4.0 | 0.00 | 0.04 | 0.00 | 63 | 1014.4 |
| 20260508034804 | 59 | 48 | 0.0 | 0.0 | 0.00 | 0.04 | 0.00 | 63 | 1014.4 |
| 20260508034304 | 59 | 277 | 1.0 | 2.0 | 0.00 | 0.04 | 0.00 | 63 | 1014.3 |
| 20260508033804 | 59 | 277 | 2.0 | 3.0 | 0.00 | 0.04 | 0.00 | 63 | 1014.4 |
| 20260508033304 | 59 | 265 | 2.0 | 3.0 | 0.00 | 0.04 | 0.00 | 64 | 1014.4 |
| 20260508032804 | 59 | 275 | 2.0 | 4.0 | 0.00 | 0.04 | 0.00 | 64 | 1014.5 |
| 20260508032306 | 59 | 288 | 3.0 | 4.0 | 0.00 | 0.04 | 0.00 | 65 | 1014.3 |
| 20260508031804 | 59 | 298 | 2.0 | 4.0 | 0.00 | 0.04 | 0.00 | 65 | 1014.3 |
| 20260508031304 | 60 | 298 | 2.0 | 3.0 | 0.00 | 0.04 | 0.00 | 65 | 1014.3 |
| 20260508030804 | 60 | 274 | 3.0 | 6.0 | 0.00 | 0.04 | 0.00 | 64 | 1014.4 |
| 20260508030304 | 60 | 290 | 3.0 | 5.0 | 0.00 | 0.04 | 0.00 | 64 | 1014.5 |
| 20260508025804 | 60 | 295 | 4.0 | 6.0 | 0.00 | 0.04 | 0.00 | 64 | 1014.4 |
| 20260508025306 | 60 | 269 | 4.0 | 6.0 | 0.00 | 0.04 | 0.00 | 64 | 1014.6 |
| 20260508024804 | 60 | 269 | 3.0 | 6.0 | 0.00 | 0.04 | 0.00 | 64 | 1014.5 |
| 20260508024304 | 59 | 290 | 2.0 | 6.0 | 0.00 | 0.04 | 0.00 | 65 | 1014.5 |
| 20260508023804 | 59 | 312 | 2.0 | 3.0 | 0.00 | 0.04 | 0.00 | 64 | 1014.6 |
| 20260508023304 | 59 | 314 | 2.0 | 3.0 | 0.00 | 0.04 | 0.00 | 65 | 1014.6 |
| 20260508022804 | 59 | 284 | 2.0 | 4.0 | 0.00 | 0.04 | 0.00 | 66 | 1014.7 |
| 20260508022307 | 59 | 300 | 2.0 | 3.0 | 0.00 | 0.04 | 0.00 | 66 | 1014.8 |
| 20260508021804 | 59 | 325 | 3.0 | 5.0 | 0.00 | 0.04 | 0.00 | 66 | 1014.8 |
| 20260508021304 | 59 | 309 | 3.0 | 6.0 | 0.00 | 0.04 | 0.00 | 66 | 1014.8 |
| 20260508020804 | 59 | 267 | 3.0 | 6.0 | 0.00 | 0.04 | 0.00 | 66 | 1014.9 |
| 20260508020304 | 59 | 298 | 3.0 | 4.0 | 0.00 | 0.04 | 0.00 | 66 | 1015.0 |
| 20260508015804 | 59 | 306 | 3.0 | 6.0 | 0.00 | 0.04 | 0.00 | 67 | 1015.0 |
| 20260508015306 | 60 | 271 | 2.0 | 4.0 | 0.00 | 0.04 | 0.00 | 66 | 1015.0 |
| 20260508014804 | 60 | 304 | 2.0 | 3.0 | 0.00 | 0.04 | 0.00 | 67 | 1015.0 |
| 20260508014304 | 60 | 284 | 2.0 | 3.0 | 0.00 | 0.04 | 0.00 | 67 | 1015.1 |